CZ-4 DEB, 26208

Orbit data source: Space-Track

CZ-4 DEB, 26208 is space debris in SSO originally from a launch on Thu, 14 Oct 1999 UTC launched from the Taiyaun Space Center, China (TSC). Debris objects in space refer to the collection of defunct objects orbiting the Earth. Examples of debris include non-operational satellites, rocket bodies, and fragments generated from explosions, collisions, or faulty payload assembly.

Loading next visibility...
Identifier
26208, 1999-057CW
Orbit
SSO
Country
Flag of CNCN / PRC
Related business
Manufacturer
Unknown
Mission
Spacecraft
Bus & Motor
Unknown
Mass
Unknown
Launch date (UTC)
1999-10-14 (26 years ago)
Launch vehicle
Unknown
Launch site
Taiyaun Space Center, China (TSC)
Object type
Payload
Rocket body
Debris
Shape & HBR
Unknown shape, 0.1 m
Radar Cross Section
Small (<0.1 m²)

Expand to show TLE details & history
Last TLE update: 21 hours ago

TLE from 21 hours ago
0 CZ-4 DEB
1 26208U 99057CW  25300.89277801  .00001263  00000-0  29810-3 0  9995
2 26208  98.5149 269.8204 0071157 123.9382 291.3958 14.54502386353585
Epoch: 2025-10-27T21:25Z
TLE epoch observation values (Epoch: 2025-10-27T21:25:36.020Z)
Latitude
53.79663°
Longitude
-99.80579°
Altitude
701.707 km
Speed
7.52 km/s
True Right ascension
17h 12m 19s
True Declination
53° 37' 53"
Sunlit
Object was in daylight at epoch
Visualization orbit readout
Latitude
Unknown
Longitude
Unknown
Altitude
Unknown
Speed
Unknown
Apparent Right ascension
Unknown
Apparent Declination
Unknown
Sunlit
N/A
Visualization observer readout
Local Sidereal Time
13:26:57
Azimuth
Unknown
Elevation
Unknown
Doppler factor
Unknown
Orbital elements
Apogee altitude
758.508 km
Perigee altitude
657.661 km
Semi-major axis
7,086.221 km
Eccentricity
0.00712
Inclination
98.5149°
RAAN
269.8204°
Arg. of periapsis
123.9382°
True anomaly
290.63415°
Mean anomaly
291.3958°
Eccentric anomaly
291.01522°
Mean motion
3.63849 °/min
Orbital period
98.94 mins
BSTAR
0.0002981
Loading maneuver chart data...
Computing Atmospheric mass density...
Loading historical data...
Loading historical data...
Loading historical data...
Loading historical data...
Loading historical data...
Loading historical data...
Loading historical data...

Documentation

Showing up to 5 results
|